Theta_e
316 316 319 320 321 321 325 330 327 326 326 319 319 320 317 316 317 317 317 317 318 319 318 319 324 326 327 327 332 331 327 337 338 329 328 331 333 336 337 335 336 336 336 336 336 336 335 335 336 337 336 330 325 322 320 320 322 322 326 329 330 332 332 332 333 334 333 334 335 333 330 328 330 330 329 330 330 331 331 331 333 334 333 332 331 330 330 330 329 329 328 328 329 328 328 328 328
319 320 321 321 321 319 325 330 330 327 324 317 317 320 315 315 317 319 321 320 319 321 323 327 329 330 331 327 326 328 327 331 329 327 331 333 335 336 336 336 336 336 334 334 335 335 335 336 337 336 335 332 327 323 321 321 321 321 325 327 329 331 332 333 333 334 333 333 334 334 332 330 330 329 328 330 330 331 331 331 332 333 333 332 331 331 332 332 331 330 328 327 328 328 329 328 328
321 323 322 321 321 322 330 329 326 326 322 318 320 320 315 317 320 322 322 317 317 321 326 328 328 327 328 327 324 326 328 329 327 330 335 336 337 336 336 336 336 336 332 333 335 334 336 337 337 335 335 334 328 324 322 321 320 319 321 325 329 330 332 333 332 334 332 332 334 334 333 331 330 329 328 330 330 330 330 331 331 332 332 332 332 331 332 332 331 330 327 326 328 329 328 328 328
321 323 321 324 326 330 343 336 327 326 320 320 320 320 321 322 321 322 319 316 319 322 322 322 325 323 323 328 327 328 330 331 331 334 336 336 337 336 336 336 336 335 331 332 334 336 337 337 336 335 335 335 330 324 323 322 322 319 318 322 328 330 331 332 331 331 331 333 334 334 333 331 331 329 328 329 329 329 330 330 330 330 330 331 331 330 330 330 329 328 327 327 327 327 327 327 328
320 321 318 325 332 332 336 328 325 323 318 321 320 319 324 325 321 321 316 317 321 320 318 323 328 323 323 330 329 328 330 332 334 334 336 336 336 336 336 337 336 334 331 332 335 338 338 337 336 335 336 335 331 325 324 324 322 320 317 317 324 329 331 331 331 331 332 333 334 333 332 330 329 329 329 328 328 329 330 329 329 330 330 331 331 330 329 328 327 328 328 329 328 326 326 327 327
320 319 317 320 321 320 323 317 318 322 320 322 321 319 322 321 318 320 317 316 318 315 316 322 327 328 329 329 326 327 329 334 335 334 336 336 336 336 337 337 336 335 332 332 335 337 338 338 336 336 337 336 332 327 325 324 321 320 317 316 321 328 330 331 332 332 333 333 333 333 331 328 326 328 329 327 328 328 329 329 330 331 331 332 331 331 330 327 326 329 330 330 329 327 326 327 327
320 319 322 322 318 321 327 323 323 324 317 315 317 318 319 320 318 321 320 318 317 314 316 321 324 327 327 325 327 329 330 334 334 335 335 336 336 336 337 336 336 336 334 333 335 336 338 338 337 337 337 336 334 329 326 324 322 321 318 316 318 326 330 332 332 332 333 333 333 332 331 328 325 327 328 327 327 328 328 329 329 330 332 332 331 331 330 328 328 329 329 329 328 327 327 326 327
320 321 325 330 327 328 331 324 325 322 313 311 313 317 319 318 319 322 321 320 318 315 322 325 323 323 322 324 332 331 330 334 334 335 335 336 337 336 336 336 336 337 336 335 335 337 337 337 337 337 337 336 335 332 328 325 323 322 320 317 316 324 329 330 331 331 332 333 332 332 331 329 325 324 327 327 327 327 328 329 329 329 330 331 330 330 329 329 329 329 328 328 328 327 328 327 327
317 319 324 330 327 327 328 319 317 317 316 315 314 318 320 315 318 322 320 317 316 318 326 327 322 318 321 328 334 329 330 335 334 335 335 338 337 336 336 335 336 336 336 336 336 336 336 337 337 337 337 336 335 334 331 327 325 323 322 319 315 319 325 328 331 331 331 332 332 332 331 330 326 325 327 326 326 328 328 328 328 328 329 329 329 329 329 329 329 328 328 328 328 327 328 328 328
319 319 324 329 327 321 319 316 317 317 316 318 316 319 319 314 316 319 319 316 316 322 323 322 323 319 323 332 332 328 332 334 335 336 336 339 338 336 335 334 335 335 336 335 335 335 336 336 337 338 337 336 335 335 333 329 326 324 323 321 316 316 320 326 331 331 330 331 331 332 331 331 329 327 327 326 327 327 327 328 328 328 328 328 328 329 329 329 329 328 328 327 327 327 327 327 327
326 325 329 330 326 319 317 319 320 322 320 318 318 318 317 314 316 317 317 315 316 320 319 318 324 329 330 333 330 328 330 334 336 337 336 339 339 337 334 333 334 334 334 334 335 335 335 336 337 338 337 337 335 335 334 331 327 325 324 322 318 315 317 323 329 329 328 329 329 331 331 330 330 327 326 326 326 326 327 327 328 327 327 328 328 328 328 328 328 327 327 326 327 327 327 327 327
325 329 340 333 325 320 321 323 319 328 328 320 318 318 315 314 317 317 316 318 317 318 319 317 322 328 333 334 327 325 330 336 336 337 338 339 339 337 334 333 334 334 334 334 335 335 335 336 336 338 338 336 335 335 334 333 330 327 325 324 321 316 315 319 324 326 326 328 329 329 330 329 329 327 326 326 326 326 326 327 327 326 327 327 327 328 328 327 327 326 326 326 327 327 327 327 327
331 333 340 326 320 321 320 321 319 328 329 321 318 314 312 313 317 318 318 320 317 320 317 314 321 323 327 330 322 323 331 336 337 338 339 339 339 337 334 333 333 334 334 334 335 335 336 336 336 337 337 336 336 336 334 333 331 329 327 325 324 320 316 315 319 321 322 325 327 328 328 327 327 327 325 325 326 326 326 326 325 325 326 327 327 328 328 327 326 325 325 326 327 327 327 327 327
333 334 335 321 315 321 322 320 320 323 322 322 318 311 312 314 317 318 318 319 319 321 313 310 322 323 320 322 319 328 333 335 337 338 338 339 339 338 335 333 333 334 335 335 335 335 336 336 336 336 337 337 336 336 334 333 333 331 328 326 326 323 319 315 316 318 318 320 323 327 326 325 325 325 325 325 326 326 326 325 325 326 326 327 328 328 327 326 325 325 326 326 326 326 326 325 326
328 329 333 327 316 317 319 317 323 325 321 322 315 312 315 313 314 318 317 319 319 313 310 312 318 318 317 319 318 326 331 336 337 337 339 339 339 339 337 334 333 334 335 335 335 335 336 336 336 336 337 337 336 336 335 334 333 332 330 328 327 325 322 317 316 316 317 317 318 323 324 323 322 322 323 325 326 326 325 325 324 326 326 327 327 326 325 325 325 325 326 325 325 325 325 325 325
325 331 333 329 318 316 316 315 321 323 322 320 310 310 317 312 310 316 312 314 316 309 313 318 314 318 319 319 320 322 331 337 336 337 338 338 338 338 337 336 334 334 335 335 335 336 335 336 336 336 336 336 337 336 335 335 334 333 332 329 327 327 324 320 317 316 316 317 317 318 319 320 320 320 320 322 325 326 325 324 324 325 325 326 326 325 324 324 324 325 324 324 324 324 324 323 324
325 336 334 324 319 319 317 316 319 321 324 318 309 311 318 315 309 310 307 309 316 313 318 318 314 321 323 318 320 324 333 337 336 337 337 337 338 337 338 337 335 335 336 336 336 336 335 336 335 336 336 336 336 336 336 335 334 334 333 331 329 328 326 323 320 318 316 316 317 317 316 317 318 318 317 319 323 325 325 324 324 324 324 324 324 324 324 324 323 323 322 322 322 322 322 322 323
334 340 330 321 322 324 321 319 318 320 321 315 312 314 317 317 312 310 309 313 317 314 318 317 318 323 321 321 321 325 333 336 337 337 337 338 337 338 338 337 336 335 336 337 336 336 336 336 335 336 336 335 335 336 336 336 335 334 333 332 331 328 327 326 323 321 319 317 316 316 315 315 315 316 316 317 320 323 324 324 323 323 324 324 323 324 323 323 322 321 321 321 321 321 321 321 322
335 333 324 327 330 322 319 319 316 316 316 316 314 312 314 316 314 311 312 317 316 316 317 316 324 325 322 322 322 326 332 335 337 337 337 337 337 338 337 337 337 336 335 337 337 337 336 335 335 335 335 335 335 336 336 336 335 334 334 333 332 330 328 327 326 324 322 320 318 317 315 314 314 314 316 316 317 320 322 324 323 322 324 323 322 323 323 322 321 320 320 319 319 319 320 320 320
326 328 325 331 331 320 315 317 317 315 314 318 315 311 312 313 313 312 314 318 316 319 320 316 322 325 329 325 321 328 332 334 336 336 337 337 338 338 337 338 337 337 336 336 337 338 337 336 335 335 334 334 335 335 335 335 335 335 335 334 333 332 330 328 328 326 325 323 321 318 316 315 313 312 315 317 316 319 322 323 322 320 322 322 322 322 320 320 320 319 319 318 318 318 319 320 320
318 324 328 325 320 317 314 314 315 314 312 317 316 312 313 311 311 312 315 318 317 321 320 317 321 325 336 327 322 330 331 333 335 334 336 336 337 337 337 338 337 337 336 336 337 337 338 338 336 334 334 334 335 334 333 334 335 335 334 334 334 333 332 330 328 328 327 325 323 321 318 316 315 312 314 316 316 317 320 321 321 319 319 321 320 318 317 318 319 319 318 318 318 318 318 319 320
316 316 320 320 317 315 314 312 313 312 311 314 315 314 313 310 311 314 316 317 319 320 316 319 318 321 336 329 324 330 331 333 334 333 335 335 336 336 337 337 336 336 336 336 336 337 337 338 338 336 334 333 334 334 333 333 334 334 334 333 333 333 333 331 330 328 328 326 325 323 321 318 316 313 313 316 316 315 316 318 319 319 318 318 318 316 316 318 319 318 318 318 318 318 318 319 320
319 315 312 316 316 314 313 312 312 311 313 315 315 313 312 312 313 313 315 317 318 314 311 311 309 313 325 325 325 330 331 332 333 333 334 334 335 335 335 335 335 335 335 336 335 336 336 336 337 337 336 334 333 333 333 333 332 332 333 333 333 333 333 332 331 330 329 328 326 325 323 321 319 316 313 314 316 315 314 314 315 316 316 316 316 317 317 318 318 318 318 318 318 318 318 319 320
322 318 312 313 312 312 312 311 310 310 314 314 311 310 312 315 313 310 313 317 314 307 303 303 306 314 321 323 327 330 331 332 332 333 333 334 334 334 334 334 335 334 334 335 335 335 335 336 336 336 337 336 333 333 332 333 333 332 332 333 333 332 332 332 332 331 330 329 327 326 324 322 321 319 316 313 314 314 313 312 313 314 315 315 316 318 318 317 318 318 318 318 317 317 318 320 320
321 318 313 312 311 312 311 311 312 311 312 310 309 312 313 313 310 310 315 317 312 307 308 312 314 319 323 325 327 328 330 331 331 332 332 333 333 334 335 334 334 334 333 334 334 334 334 334 335 335 336 337 335 334 333 332 332 332 331 332 333 332 331 330 332 332 331 330 328 327 325 323 322 321 319 316 313 314 314 313 312 312 313 314 315 317 317 317 318 318 318 319 317 316 318 319 320
318 316 314 314 312 312 312 312 315 313 311 310 311 314 313 310 308 312 317 315 309 310 323 331 328 330 328 326 326 327 329 329 330 330 331 332 333 334 334 334 334 334 333 333 333 334 334 334 334 334 334 335 336 335 334 332 331 332 331 330 332 332 331 330 330 331 331 331 329 328 326 324 323 322 322 319 317 314 313 313 312 311 312 313 315 316 317 316 317 317 318 318 316 315 318 319 320
315 316 315 314 313 313 313 314 314 313 312 311 313 314 313 309 309 315 315 308 307 319 336 332 334 343 332 325 325 326 327 327 329 329 329 330 331 333 333 334 333 334 334 333 333 333 333 334 333 333 333 334 335 336 335 334 332 331 331 330 330 331 331 331 330 330 330 331 330 329 328 326 324 322 322 322 320 317 314 313 310 310 310 312 314 315 316 316 317 317 317 318 316 315 317 319 320
313 315 314 313 312 313 313 314 314 314 312 311 313 313 313 310 312 318 313 306 308 322 339 333 335 340 328 325 324 323 325 325 327 327 328 329 330 331 332 333 332 333 333 333 333 333 333 333 333 332 332 333 333 335 335 335 334 331 331 330 330 330 330 331 330 330 329 330 330 329 328 327 325 323 322 322 322 321 318 315 311 309 308 309 312 314 315 315 316 317 317 317 316 315 317 319 320
314 315 315 314 315 313 312 313 314 314 312 312 314 312 314 314 315 318 310 307 311 318 331 335 335 331 324 326 324 322 323 324 326 326 328 328 329 330 330 331 331 332 332 332 333 332 333 333 334 333 332 333 332 332 334 335 335 333 333 331 331 331 330 330 330 330 329 328 329 329 329 327 326 324 323 322 322 322 321 319 315 311 308 307 310 312 313 314 315 316 316 316 315 314 316 318 319
313 314 317 316 315 313 310 312 314 313 311 310 312 311 317 318 314 312 308 308 313 317 323 325 327 326 322 323 323 324 321 321 324 325 327 327 328 329 329 330 330 331 331 331 332 332 333 332 334 335 334 334 333 332 332 334 335 334 334 333 332 332 331 331 330 331 330 329 329 328 329 328 327 326 324 324 323 323 322 321 320 316 310 307 309 310 312 313 313 314 314 314 314 314 315 318 319
314 311 317 317 315 314 311 312 316 312 310 309 308 311 316 317 312 307 307 310 312 316 321 318 319 320 319 319 319 322 319 319 322 323 325 326 327 328 328 329 329 331 331 330 331 330 332 331 332 333 333 333 333 333 330 331 334 334 334 334 333 333 333 333 332 332 331 331 331 330 330 329 329 328 326 326 324 324 323 322 322 320 314 309 309 311 312 312 312 312 312 312 312 312 314 317 318
319 311 316 316 312 315 314 313 317 314 311 310 309 311 315 315 313 309 307 311 312 314 320 318 318 318 317 317 315 317 315 314 317 321 324 324 325 327 327 328 328 329 330 330 330 329 330 330 330 331 331 332 332 332 330 329 331 332 333 333 333 333 332 333 333 333 333 332 331 331 331 330 330 329 328 327 326 325 324 324 324 323 319 314 311 312 312 313 311 311 311 310 311 311 313 315 318
322 315 319 318 313 315 313 313 314 314 313 313 310 312 317 316 315 313 309 311 312 314 319 320 321 319 317 315 313 314 313 311 311 313 320 323 324 325 326 326 326 327 328 329 330 329 329 328 329 329 329 331 331 331 330 331 333 332 332 332 333 332 331 332 332 333 333 332 332 331 331 330 330 329 329 329 328 327 326 326 324 324 323 319 316 314 312 312 311 311 311 310 310 311 313 315 316
318 319 320 317 316 314 313 314 312 311 314 314 312 312 316 317 316 316 312 310 312 315 320 321 320 319 317 314 312 311 311 312 310 307 313 320 322 323 324 325 325 326 326 327 328 329 329 328 327 327 327 328 330 331 330 330 333 334 335 335 334 334 333 333 332 332 332 333 332 331 331 331 331 330 329 329 329 328 328 327 326 325 324 322 320 317 313 312 311 310 310 310 310 311 313 314 315
316 318 316 314 316 313 314 317 312 311 313 314 315 314 315 317 315 316 312 310 313 316 317 317 316 316 315 314 314 313 311 313 309 305 309 312 314 317 319 322 324 325 325 326 327 327 328 328 328 327 327 327 327 330 331 330 331 332 332 333 334 335 335 334 333 333 333 333 331 329 329 330 331 331 331 330 329 329 328 328 326 325 324 322 320 317 313 312 311 310 310 310 310 310 311 313 314
318 319 318 319 321 316 315 317 310 310 314 315 317 316 317 317 316 317 314 310 312 314 314 315 315 314 314 314 314 313 315 315 308 304 307 308 309 311 312 315 318 321 324 324 325 326 326 326 327 327 327 327 327 327 329 331 332 332 330 329 331 331 332 331 330 330 332 333 331 329 329 329 329 329 330 330 330 329 328 327 326 324 325 323 319 317 315 313 312 310 309 309 310 310 310 311 312
317 318 321 322 320 317 314 314 311 310 315 317 319 319 319 317 316 317 313 309 311 314 316 318 318 318 317 317 317 315 315 312 306 305 307 307 307 308 308 309 311 313 317 320 322 323 324 325 325 326 326 327 327 326 327 328 330 332 332 331 330 329 330 330 329 329 330 332 332 332 332 331 331 330 329 329 330 329 328 327 326 324 324 324 322 320 316 313 310 309 309 309 309 310 310 310 310
317 316 319 318 318 318 313 312 312 310 312 316 317 318 318 317 317 316 312 310 314 317 318 320 321 320 316 316 318 316 312 308 305 305 305 306 307 307 308 308 307 309 311 313 316 317 320 322 323 323 324 325 326 326 326 326 327 328 330 331 331 331 331 331 332 332 331 333 333 333 333 332 332 332 331 330 329 329 328 326 325 324 323 323 323 320 315 312 309 308 308 308 308 309 309 309 309
321 317 316 317 317 317 312 311 312 309 312 317 318 317 318 317 316 315 313 312 314 314 315 316 317 318 315 313 314 313 310 309 308 305 304 305 307 307 307 307 307 308 309 309 311 312 315 318 319 320 322 323 323 325 325 325 325 325 326 327 329 330 330 330 331 332 332 332 331 331 331 332 333 332 331 331 329 328 327 325 325 326 324 322 320 318 316 313 310 307 307 308 307 307 307 307 308
321 318 317 316 316 316 314 312 312 310 310 315 317 316 317 316 315 316 311 307 310 311 311 312 310 312 313 311 311 309 310 310 310 308 304 303 305 306 306 306 307 307 307 308 309 310 312 313 315 317 319 321 321 323 324 324 324 324 324 325 326 327 328 328 328 329 330 329 328 328 328 328 331 332 331 331 330 329 328 326 326 327 327 323 320 319 316 314 312 310 308 307 306 305 305 305 307
316 321 326 323 318 318 316 312 313 312 309 310 313 313 321 325 323 323 314 307 310 310 310 313 310 308 308 309 309 308 308 308 307 309 305 302 303 305 305 305 306 307 307 308 308 308 310 311 313 315 317 319 321 322 323 323 324 324 324 325 326 327 327 328 328 329 329 329 329 329 327 326 327 329 330 329 327 327 328 328 327 327 327 326 324 322 319 317 317 315 311 309 308 307 307 306 306
314 320 329 327 322 321 317 315 316 316 312 309 309 312 326 332 329 326 319 316 316 311 312 316 314 311 310 311 310 308 307 306 305 306 304 301 301 302 304 305 304 306 307 307 308 308 309 310 311 314 316 318 320 321 322 323 323 324 325 325 326 326 327 327 327 328 328 329 329 329 328 327 326 327 328 328 328 327 327 328 327 327 327 325 324 322 318 316 315 313 312 310 308 308 308 306 305
314 315 318 321 324 324 322 318 316 317 313 307 308 314 321 324 325 324 319 318 319 314 316 318 314 313 313 311 310 308 308 307 305 304 302 299 300 300 302 305 305 305 306 306 307 308 309 310 311 312 315 317 319 320 322 323 323 323 324 324 325 325 326 325 326 326 326 327 327 328 328 327 328 328 329 330 330 329 328 328 328 328 327 325 324 320 318 317 316 314 313 310 308 308 307 305 305
314 312 315 321 325 325 324 322 319 319 312 310 316 317 314 316 318 319 315 316 319 318 318 317 314 315 315 313 312 311 311 309 307 309 307 299 297 300 303 306 307 306 306 306 306 308 308 310 311 312 315 316 318 319 321 322 323 323 323 324 324 324 324 324 324 324 325 325 326 326 326 326 327 328 329 330 330 330 329 329 328 328 328 326 324 322 320 319 317 316 314 312 310 308 307 306 307
315 310 313 318 321 324 327 326 324 317 309 315 322 313 311 318 321 319 313 313 317 319 318 317 316 316 316 317 318 318 318 313 309 312 309 300 299 304 307 308 309 310 309 308 308 308 309 310 311 313 315 316 318 319 320 321 322 323 323 323 323 323 323 323 323 323 324 324 324 325 325 325 326 326 327 328 329 329 328 329 328 327 326 326 325 323 321 320 318 317 315 314 311 308 307 306 306
312 307 312 314 317 321 323 323 324 317 313 321 319 309 310 317 324 323 313 310 317 320 317 317 317 318 318 319 319 321 323 321 318 311 302 300 305 307 308 310 311 311 311 310 311 311 311 312 312 313 315 316 318 319 320 321 322 323 323 323 322 322 323 323 323 323 323 323 324 324 324 324 325 325 326 326 327 327 327 328 328 327 326 325 325 324 322 320 318 317 315 313 311 308 305 304 305
309 312 316 315 320 323 321 322 320 314 319 324 314 310 310 309 320 324 313 312 317 317 316 317 320 322 320 321 320 321 323 324 325 316 303 302 308 309 309 311 311 311 312 312 312 312 313 313 313 314 316 317 318 319 320 321 322 322 323 323 323 323 323 322 322 322 323 323 323 324 324 324 325 325 325 325 325 325 326 327 327 327 326 325 324 323 322 320 319 319 317 314 312 309 307 306 305
314 322 320 315 321 323 323 325 317 313 325 322 310 309 310 308 317 319 314 316 315 313 314 316 321 323 321 322 322 322 324 325 327 327 315 304 304 308 310 310 311 312 313 313 313 314 314 314 315 315 316 317 318 319 320 321 321 322 322 323 323 323 323 323 322 323 323 323 323 323 324 323 323 323 323 323 324 324 325 325 326 326 326 325 323 322 322 321 319 319 318 317 315 311 308 307 305
317 319 319 319 322 319 322 329 319 316 323 313 307 309 309 310 315 312 314 317 315 314 314 316 319 320 322 324 322 321 325 329 327 325 324 311 303 306 309 309 311 312 313 313 314 314 314 314 315 315 316 316 317 318 319 320 320 321 321 322 322 323 323 323 323 323 323 323 323 323 323 322 322 322 322 322 322 323 323 323 323 323 322 321 320 320 321 321 319 317 316 316 315 312 308 307 306
314 314 318 321 322 315 317 321 313 313 318 309 306 309 311 314 313 313 315 311 311 314 313 314 314 315 318 316 315 320 324 328 324 319 324 316 304 304 308 308 309 311 312 313 313 313 314 314 314 314 315 315 316 316 317 318 318 319 319 320 321 321 322 322 322 322 323 323 322 322 322 321 321 321 321 321 321 321 320 320 320 319 319 318 317 318 319 319 319 318 317 316 315 313 311 309 307
313 315 316 318 325 324 320 320 319 319 318 311 306 310 319 318 309 311 314 309 310 313 312 312 312 312 310 308 313 321 322 322 320 321 320 308 300 304 307 307 309 310 312 312 312 313 313 313 313 313 313 314 314 314 315 315 316 317 317 318 319 319 320 320 320 321 321 321 321 321 321 320 320 320 320 319 319 318 317 317 316 316 315 315 315 316 317 317 318 317 316 315 315 314 311 310 309
313 313 313 314 321 323 316 313 317 317 313 312 310 314 321 316 308 310 310 309 312 312 312 313 316 315 309 312 322 324 322 320 319 326 322 305 299 304 306 308 309 310 311 312 311 312 312 312 312 312 312 312 312 312 313 313 313 314 315 315 316 317 317 318 318 318 318 319 319 319 319 319 318 318 318 317 316 316 315 314 314 314 313 313 313 313 313 314 315 315 314 313 313 313 311 310 310
313 311 314 315 315 318 314 306 306 308 310 313 313 314 317 312 310 315 313 312 312 311 312 314 319 319 313 318 327 322 320 318 316 321 318 305 302 305 307 309 309 309 310 311 311 311 312 311 311 311 311 311 311 312 312 312 312 312 312 313 313 314 314 315 315 315 315 316 316 317 317 316 316 316 315 315 315 314 314 313 313 312 312 311 311 311 311 311 311 311 311 310 310 310 310 310 309
314 316 316 311 309 315 316 311 313 313 313 317 314 313 315 312 312 318 316 312 312 313 315 314 316 317 314 320 324 319 317 315 315 317 311 303 304 306 308 308 309 310 311 311 312 311 311 311 311 310 311 310 310 311 311 311 311 311 311 312 312 312 312 313 313 313 314 314 314 314 315 315 314 314 314 314 314 313 313 312 312 312 311 311 310 310 310 310 309 309 308 307 307 308 309 309 309
314 318 313 311 314 317 313 312 319 316 312 321 320 311 309 310 315 320 314 312 316 316 314 314 315 316 318 322 320 317 316 316 317 320 316 308 306 307 308 309 310 311 312 312 312 311 311 311 310 310 310 310 310 310 310 310 310 311 311 311 311 311 311 312 312 312 312 313 313 313 313 313 313 313 313 313 313 312 312 312 311 311 311 310 310 310 310 309 308 308 306 305 304 306 308 309 309
310 310 307 313 322 321 314 312 317 315 311 318 322 317 315 313 316 320 313 315 323 320 315 315 317 320 324 321 317 314 315 316 316 319 320 311 305 307 309 309 311 311 311 312 311 312 312 311 311 311 311 311 311 311 310 310 310 310 310 310 310 310 310 311 311 311 312 312 312 312 312 312 312 312 312 312 312 312 312 311 311 311 310 310 310 309 309 309 307 306 305 304 303 304 306 308 309
310 310 309 313 315 314 313 312 313 317 318 318 317 319 325 321 314 316 314 315 319 318 315 316 319 323 324 319 317 315 313 314 315 319 320 308 304 308 309 309 312 311 312 312 311 312 312 312 312 312 312 312 311 311 311 311 311 310 310 310 310 310 310 310 310 310 311 311 311 312 312 312 312 312 311 311 312 311 311 311 310 310 310 309 309 308 308 308 307 306 305 305 305 304 304 306 307
310 311 312 313 313 313 315 312 311 312 314 318 316 313 322 324 314 313 313 311 311 310 312 318 321 320 319 316 318 319 316 314 317 320 315 305 302 306 308 310 312 311 312 312 312 313 312 313 313 312 312 312 312 312 311 311 311 311 310 310 310 310 309 309 310 310 310 310 311 311 311 311 311 311 311 311 311 310 310 310 310 310 309 309 308 307 307 307 307 307 306 306 306 305 305 305 306
Wind_Speed
1 1 3 2 2 2 3 5 2 2 3 2 1 1 2 1 1 2 2 2 2 2 2 1 4 6 3 2 4 4 2 3 3 2 1 1 12 20 15 16 20 19 18 18 17 17 16 15 13 13 12 11 11 11 11 13 13 14 15 15 16 16 16 16 15 14 13 13 15 17 19 21 21 20 20 19 19 19 19 20 19 19 20 20 20 20 21 21 20 20 21 21 22 22 22 22 22
1 2 3 3 2 1 1 3 2 2 4 1 2 2 2 1 1 4 6 4 3 1 1 2 4 4 3 3 2 3 2 0 2 1 2 8 17 17 15 21 21 19 19 18 18 18 17 15 14 13 12 11 10 10 11 13 13 14 14 15 16 16 15 15 15 13 12 13 15 18 20 20 20 19 19 19 19 19 19 19 19 19 19 20 21 20 20 20 20 20 20 21 21 21 21 22 22
1 2 3 3 4 4 2 3 2 1 3 1 3 2 1 2 4 5 6 4 2 2 2 3 3 2 3 2 1 2 1 0 3 1 5 14 16 13 19 23 21 20 20 19 19 18 17 15 14 13 12 11 10 10 12 13 13 13 14 15 16 16 15 15 14 12 12 13 14 17 20 19 19 19 18 18 18 18 18 19 19 19 19 19 20 19 19 19 19 19 19 20 20 20 20 21 21
1 1 2 2 3 4 3 3 2 3 2 2 2 3 2 4 5 4 4 3 2 2 2 2 2 1 1 0 0 1 0 1 3 2 7 14 14 17 22 23 21 20 20 20 19 18 17 15 14 13 12 11 10 10 12 13 12 13 13 14 16 16 16 15 14 12 12 13 13 16 18 18 18 18 18 17 17 17 18 18 18 19 18 18 18 18 18 18 18 18 19 20 20 20 20 20 20
3 4 1 2 3 2 3 2 2 3 3 3 2 3 4 5 5 3 1 3 4 1 2 2 1 0 1 1 1 1 1 2 4 4 8 13 16 20 22 22 23 20 20 20 18 17 16 15 14 13 11 10 10 10 12 12 12 12 12 14 16 16 15 15 14 12 12 12 13 15 16 16 17 18 17 17 17 17 17 17 18 17 17 17 17 18 18 18 20 20 20 20 19 19 20 20 20
4 7 8 8 4 1 3 2 1 1 4 4 2 4 5 5 5 5 3 2 2 0 2 1 1 1 1 0 0 2 2 3 5 7 11 15 18 21 21 22 22 20 20 20 18 16 15 15 14 13 11 10 10 10 12 11 12 12 12 13 15 17 16 15 13 11 12 13 13 13 13 14 16 17 17 17 17 16 16 17 17 17 17 17 17 17 17 18 20 20 19 18 18 19 19 20 20
4 3 6 8 3 1 3 2 3 2 2 2 1 3 5 6 5 7 6 2 1 1 0 1 1 3 1 1 1 2 1 4 5 8 14 17 19 20 22 21 20 19 19 19 18 16 15 14 13 12 11 11 10 10 11 11 11 12 12 12 13 16 15 14 13 11 11 13 13 12 12 14 16 18 17 17 16 15 16 17 17 17 16 16 17 17 17 17 18 18 17 17 18 19 19 19 19
3 1 2 4 2 3 3 2 3 1 0 2 2 3 4 6 6 8 7 3 1 1 0 1 1 2 1 1 2 2 1 5 5 9 15 17 19 21 23 22 19 18 19 20 18 16 15 14 13 12 11 10 9 10 10 10 11 11 11 11 12 14 14 14 14 12 11 11 12 12 13 16 17 18 17 16 15 15 16 17 17 17 16 16 16 17 17 17 17 17 17 17 17 18 18 18 19
6 3 1 3 2 2 2 1 1 2 2 3 3 3 3 4 5 7 7 1 1 2 1 3 2 1 1 2 0 2 0 5 5 12 16 16 19 21 24 23 21 20 21 21 18 17 16 14 14 12 11 10 8 9 9 9 10 10 11 11 12 12 14 16 14 13 12 11 12 12 13 15 16 17 17 16 15 15 15 16 16 16 16 16 16 17 17 17 17 16 16 16 16 16 16 17 17
6 4 1 3 2 2 2 1 1 1 3 3 3 4 3 4 4 5 5 2 1 3 1 2 2 1 1 2 0 1 2 4 8 15 14 17 21 21 24 23 21 21 22 21 20 18 16 15 14 13 12 10 9 10 9 9 9 10 10 10 11 12 14 16 15 14 13 11 11 12 12 14 16 16 16 16 15 14 15 15 15 15 15 16 16 16 16 16 16 15 15 15 15 15 15 16 17
4 4 2 3 3 2 1 2 3 2 4 3 2 3 3 4 5 4 2 2 0 2 2 2 2 3 2 1 1 0 2 5 11 16 14 17 20 21 24 22 20 20 21 21 20 18 17 16 15 14 13 12 10 10 10 9 9 9 9 10 10 11 13 15 15 15 14 12 11 11 11 13 15 16 16 15 15 14 13 13 15 14 15 15 15 16 15 15 15 14 14 15 15 15 15 16 17
3 2 3 3 2 2 2 3 3 4 5 2 1 3 3 4 5 4 3 3 1 1 3 3 2 3 3 2 2 1 3 7 12 16 15 17 20 21 23 21 20 19 20 20 19 18 17 16 16 14 13 13 12 11 10 9 10 9 8 9 9 11 11 13 13 13 14 13 12 11 10 11 12 13 15 16 15 14 12 12 14 14 14 15 14 14 14 14 14 14 15 15 15 15 16 17 17
3 2 4 3 2 2 2 3 2 3 4 1 3 2 3 5 4 5 5 3 3 3 3 4 2 3 2 2 1 1 4 9 13 16 15 18 19 19 21 20 20 18 19 18 18 18 17 16 16 15 14 14 13 12 11 9 10 9 9 8 8 9 10 11 11 11 13 14 13 12 10 9 9 10 14 16 15 15 13 12 14 14 14 14 14 14 13 14 14 14 15 15 15 15 16 17 17
3 2 4 3 1 2 3 2 1 1 2 3 1 2 3 2 3 4 6 4 4 5 1 2 4 3 1 1 1 2 6 12 14 15 16 18 18 18 19 19 19 18 18 17 18 17 17 16 16 16 14 14 13 12 11 10 10 9 9 8 8 8 9 10 10 10 10 12 13 12 10 9 8 9 13 16 15 15 13 12 13 13 14 14 13 13 13 14 14 14 14 14 15 15 16 15 15
4 2 4 4 2 1 2 1 1 3 3 3 2 4 3 0 3 4 5 5 4 4 1 1 3 2 2 2 2 3 10 15 16 16 17 19 18 17 18 18 18 18 17 16 17 17 17 17 17 17 15 14 14 13 12 11 11 10 9 9 8 8 8 9 9 9 9 9 11 11 9 8 8 8 13 17 16 16 14 13 13 13 13 14 13 13 13 13 13 13 14 14 14 14 14 14 14
3 4 5 3 1 1 3 1 2 2 4 3 1 2 4 1 2 3 3 3 2 1 1 2 1 0 1 3 2 3 14 18 17 18 18 18 17 15 16 16 17 17 16 16 16 16 17 18 18 18 17 16 15 14 13 12 12 11 10 9 9 8 8 8 8 8 8 9 9 10 9 8 7 8 11 16 17 16 14 13 14 14 13 13 12 12 12 12 12 13 12 12 12 12 12 13 13
2 4 5 2 2 2 4 4 4 3 4 3 2 3 7 1 1 1 1 3 3 0 1 2 1 1 2 2 1 5 17 19 19 20 19 19 17 14 14 14 15 15 15 16 15 16 16 18 19 19 18 17 16 14 13 13 13 12 11 10 9 9 8 8 8 8 8 9 9 9 9 8 7 8 10 14 17 17 15 13 13 14 13 13 13 12 12 12 12 12 12 10 10 10 11 12 13
4 3 3 1 3 3 5 7 7 4 2 4 4 4 7 4 2 1 1 3 3 0 2 2 1 3 4 4 3 9 19 21 22 22 21 20 18 16 14 14 15 16 16 16 16 16 17 18 19 19 18 18 17 16 15 14 14 13 12 11 11 10 9 8 7 7 7 8 8 8 8 7 7 8 9 12 16 16 15 14 13 13 13 13 13 11 11 11 11 12 12 10 9 9 10 11 11
3 3 3 2 5 5 5 7 6 2 2 5 4 3 4 5 4 3 2 1 2 2 3 3 3 5 4 4 3 15 20 22 24 23 23 22 21 19 17 16 17 17 17 17 16 16 17 18 19 19 19 19 18 17 16 15 15 14 13 13 12 11 10 9 8 8 7 7 7 7 8 7 7 7 8 11 14 16 15 15 13 13 13 13 12 12 11 11 12 13 11 9 9 8 9 10 11
2 4 3 4 5 3 3 5 6 3 2 7 5 3 2 2 3 2 3 2 0 4 4 1 3 7 5 1 7 18 19 21 23 22 22 22 22 21 20 20 20 19 18 18 18 17 17 18 18 19 20 20 19 18 17 17 16 15 15 14 13 13 12 11 10 9 8 8 7 7 7 7 7 8 9 11 13 15 16 15 13 13 14 14 14 13 12 11 12 13 11 9 9 7 8 10 11
2 3 4 4 3 1 1 4 5 3 3 6 6 5 2 3 3 2 5 4 2 5 6 7 8 9 6 4 11 17 18 19 20 20 20 20 21 21 22 23 22 21 19 19 20 20 19 18 18 19 20 20 20 20 19 18 18 17 16 16 15 14 13 12 11 11 10 9 8 8 8 8 8 8 10 11 13 14 15 15 14 13 14 14 14 12 10 11 12 12 11 10 9 8 8 9 11
3 1 3 4 3 3 1 2 3 2 3 5 7 6 4 3 2 3 7 6 5 5 5 8 9 7 7 8 14 16 16 18 19 20 20 21 22 22 23 23 22 21 20 21 22 22 20 19 19 19 20 20 21 21 20 19 19 19 18 18 17 16 15 14 13 13 12 11 10 9 9 9 9 9 10 11 12 13 14 14 13 13 14 14 13 10 9 12 12 12 11 10 9 8 8 10 11
3 0 1 3 3 3 0 1 1 3 6 6 6 4 3 5 1 1 6 7 5 3 3 5 5 6 9 11 16 15 15 18 20 23 23 24 25 25 25 23 23 23 23 22 23 24 22 21 20 20 20 19 20 21 21 20 20 20 20 20 19 18 18 17 16 15 14 13 12 11 11 10 10 10 11 12 13 13 13 14 14 13 13 13 12 9 10 12 13 12 11 10 9 8 9 10 11
4 2 1 3 2 3 0 0 1 3 5 5 3 2 3 5 3 2 4 9 4 2 4 2 3 8 11 12 16 17 18 22 25 26 25 26 27 26 25 23 23 23 23 24 24 25 25 24 22 21 20 19 19 20 21 22 22 21 21 21 21 20 19 18 18 17 16 15 14 13 12 12 11 11 12 13 13 13 13 13 13 13 13 12 11 11 11 12 13 12 12 10 9 9 10 11 12
4 3 3 3 2 2 1 3 4 3 3 1 3 4 1 4 3 1 7 9 4 4 2 3 6 8 9 10 14 16 17 21 23 22 22 23 22 21 23 23 22 23 25 26 25 25 26 26 25 24 23 21 19 18 20 23 23 22 22 22 22 21 20 19 19 18 17 16 15 15 14 14 13 13 13 13 14 14 14 14 13 14 13 12 12 12 13 13 13 13 12 11 10 9 10 11 13
2 4 4 4 1 3 2 4 5 3 1 2 5 2 4 2 1 3 7 6 5 3 2 4 6 6 7 8 13 16 15 19 21 19 20 21 19 20 23 23 23 25 26 26 26 26 26 27 27 26 25 24 21 19 19 21 23 25 24 23 24 23 22 20 19 19 19 18 17 17 16 15 15 14 14 14 14 14 14 14 14 14 13 13 13 13 14 14 13 13 13 12 10 10 11 12 14
4 6 6 6 2 2 3 5 5 2 2 3 4 2 3 1 1 4 5 4 4 1 3 1 4 6 7 6 10 14 14 17 19 18 18 18 20 23 24 25 26 27 26 26 27 26 26 27 27 28 27 26 25 22 20 20 22 25 25 24 25 24 23 22 21 20 20 20 19 18 18 17 16 16 15 15 15 15 15 15 15 15 15 14 14 14 15 14 14 13 13 12 11 11 11 13 14
5 7 7 6 3 4 5 5 4 2 2 3 4 3 3 2 1 6 4 5 2 4 2 1 3 5 5 5 6 9 11 14 15 16 18 21 25 27 27 28 29 27 27 27 26 25 25 26 26 28 28 27 27 26 23 22 22 24 26 25 25 25 24 23 23 22 21 21 21 20 19 19 18 18 17 17 16 16 16 16 16 16 16 15 15 15 15 15 15 14 13 12 12 12 12 14 15
3 5 5 5 6 6 5 3 3 2 2 2 3 1 4 2 5 8 4 6 3 4 2 2 3 4 3 4 4 6 10 11 14 18 23 26 28 27 29 31 29 28 28 26 24 25 26 25 25 26 26 27 28 28 27 25 23 23 25 25 26 26 25 24 24 24 23 22 22 22 21 21 20 20 19 18 17 17 17 16 16 16 16 16 16 16 16 16 16 15 15 14 13 13 14 15 17
2 3 4 2 5 4 4 3 3 2 2 3 2 1 6 6 9 8 5 5 3 1 4 3 3 4 4 4 4 6 9 12 16 22 26 26 26 27 29 30 28 28 27 25 25 26 26 26 26 25 26 27 28 28 28 28 27 26 26 25 25 26 26 26 26 25 24 23 22 22 22 22 22 21 21 20 19 19 18 18 18 17 17 17 16 16 16 17 17 17 17 16 15 15 15 17 18
3 2 2 3 2 3 4 3 1 3 1 4 5 2 6 7 9 6 5 3 0 3 5 3 3 4 4 4 4 6 8 14 20 22 24 25 26 27 29 30 29 30 28 28 29 28 27 28 28 27 28 28 28 29 29 29 28 28 28 27 27 27 27 28 28 27 26 25 24 23 22 23 23 23 23 22 22 21 20 20 19 19 19 19 19 18 17 19 20 20 19 18 18 18 18 19 20
3 2 1 2 3 4 6 3 2 3 0 5 7 2 6 7 8 6 5 2 3 4 5 4 4 5 4 4 5 6 7 13 20 23 25 26 27 29 31 31 31 32 32 32 31 29 29 29 29 29 29 29 30 30 28 28 29 29 28 28 28 28 27 28 29 29 27 27 27 26 24 23 23 23 24 24 24 24 23 22 21 20 21 21 22 22 22 23 22 22 21 21 21 21 21 22 23
4 2 3 1 3 2 4 2 3 2 1 3 4 2 3 3 6 6 4 3 4 2 6 6 5 5 5 5 5 6 6 10 15 23 28 30 31 32 33 34 34 34 34 34 33 31 31 31 31 31 31 31 30 30 28 27 28 29 29 29 31 32 30 28 29 31 30 29 31 31 28 24 23 23 23 25 25 25 25 24 23 23 23 23 23 24 25 25 24 24 24 24 24 23 24 25 25
2 2 3 2 3 3 2 2 3 4 3 0 2 1 6 6 7 7 5 0 1 4 6 7 6 5 5 5 5 6 7 7 11 20 28 31 33 34 35 35 35 34 34 34 34 34 34 32 32 33 33 32 30 30 29 28 28 28 27 27 29 33 33 30 30 32 33 32 29 29 29 28 28 28 27 26 25 26 27 27 27 26 26 25 24 26 28 27 27 27 27 27 26 25 26 26 27
5 3 4 2 2 3 2 3 3 3 4 2 0 3 9 10 10 10 7 2 3 6 6 6 7 6 6 5 5 6 7 9 13 20 24 26 29 32 33 34 34 34 34 34 34 34 34 34 33 33 33 33 32 31 29 29 29 30 29 27 25 28 29 27 28 31 34 32 27 25 27 28 30 32 30 27 26 29 30 30 31 30 29 28 28 29 30 30 30 30 29 28 28 27 26 26 27
10 6 5 5 3 3 5 4 4 1 3 3 4 4 7 9 10 11 8 2 3 7 5 6 7 6 6 5 6 6 7 11 14 16 17 19 22 24 26 29 31 33 34 34 34 34 34 35 34 34 35 34 32 31 30 28 28 29 31 31 31 31 30 28 28 29 30 30 30 31 31 29 29 29 28 29 31 34 34 32 32 32 31 30 31 31 32 33 33 32 31 30 30 27 25 26 27
9 6 5 4 4 2 3 3 5 1 3 3 3 3 7 9 11 12 8 2 3 8 7 8 8 7 7 6 7 7 9 9 8 10 11 12 15 16 18 21 24 27 30 32 33 34 35 35 35 36 36 34 32 32 32 32 30 29 29 31 33 34 33 32 32 32 32 32 33 35 35 34 32 29 29 30 32 35 36 34 33 33 33 32 32 34 34 34 33 32 31 31 30 29 27 27 28
6 6 5 2 2 2 2 1 3 3 1 2 1 2 9 10 10 11 7 3 6 8 8 9 9 8 7 7 9 9 8 6 5 8 11 11 13 14 16 19 21 24 26 29 31 33 34 34 35 36 34 33 34 33 33 33 34 33 32 32 32 31 31 30 31 32 32 30 28 28 30 32 33 33 33 31 29 32 36 38 36 35 34 32 32 33 34 32 32 32 32 31 30 30 29 29 30
6 4 5 2 2 2 1 1 3 3 0 2 2 3 9 10 10 11 9 7 8 7 7 8 7 8 8 7 8 8 8 7 6 8 10 12 12 13 16 19 21 23 23 25 27 29 31 32 34 34 33 33 33 33 33 33 33 33 32 31 30 29 30 31 30 30 30 30 29 27 26 27 31 35 36 33 29 31 36 39 36 34 33 33 32 32 33 33 33 33 33 33 31 28 27 28 31
4 4 5 3 2 2 1 2 2 3 2 1 1 2 7 7 6 8 7 5 6 6 6 8 7 8 10 8 6 6 8 10 8 7 8 11 12 14 17 18 20 21 22 24 25 26 28 30 31 31 32 32 32 32 32 32 30 29 29 28 27 27 28 30 30 31 31 32 32 32 30 28 29 31 31 29 27 29 33 36 36 35 32 32 32 32 34 35 35 35 35 35 33 29 27 28 31
1 3 5 4 4 4 3 2 1 2 3 2 1 3 6 4 4 7 5 4 5 5 5 7 6 7 9 8 8 8 9 10 9 9 8 9 11 13 14 16 17 19 22 24 24 24 25 26 27 28 29 29 30 29 29 29 27 26 25 25 25 24 25 26 26 28 30 31 32 33 32 30 29 29 29 29 28 27 29 33 36 35 31 31 33 35 37 37 36 38 39 39 39 36 33 32 33
0 3 5 6 8 6 3 3 4 3 2 3 4 2 5 5 4 6 4 6 7 5 5 8 6 5 6 7 8 7 7 8 7 9 8 8 11 13 14 14 15 17 20 20 20 21 21 22 22 23 25 26 27 27 26 26 27 27 26 26 26 25 25 26 28 29 31 32 33 33 32 30 29 31 33 34 33 30 29 31 34 33 32 34 36 36 37 37 37 38 39 40 41 40 38 35 34
2 3 4 6 8 9 7 5 4 2 1 2 3 2 4 6 5 6 4 7 10 7 5 7 6 6 5 5 6 6 7 7 5 7 7 8 11 12 12 10 11 14 14 14 15 17 18 18 18 19 21 22 23 24 24 25 26 28 28 28 28 28 27 27 30 31 31 31 32 32 32 31 30 31 33 32 31 30 30 31 33 34 34 34 36 38 38 38 39 38 38 39 40 40 38 37 37
3 2 5 8 9 9 7 6 4 2 2 2 4 3 1 5 5 6 5 6 9 8 7 7 6 6 6 5 6 5 6 6 5 6 6 7 9 9 9 6 5 7 8 9 11 11 13 14 15 16 17 18 20 21 23 24 26 28 29 29 29 28 28 28 28 28 29 29 29 30 30 31 31 31 31 30 29 30 30 31 31 32 32 31 34 38 40 39 39 37 37 39 40 42 43 42 40
2 2 5 7 8 7 5 6 4 1 1 2 4 3 1 5 6 5 5 4 8 8 7 7 6 6 6 6 5 5 5 4 4 5 5 6 7 6 5 3 1 1 2 5 6 7 8 9 11 13 14 15 16 18 20 22 24 26 27 28 28 28 29 28 27 26 26 26 28 28 29 29 30 31 31 32 32 33 33 32 31 31 32 32 33 36 37 38 37 37 37 38 41 44 45 42 38
3 5 7 7 7 6 5 5 3 3 2 3 4 3 0 5 6 4 3 2 7 7 6 6 6 6 6 5 6 5 5 4 3 3 5 5 5 4 3 3 4 4 4 5 5 5 6 7 8 10 11 12 13 15 17 19 21 24 25 27 27 28 28 27 26 25 25 25 26 27 28 28 29 29 30 32 33 33 34 34 34 34 34 32 33 33 35 36 37 37 37 39 41 42 42 40 37
8 6 8 7 6 5 4 3 3 3 2 5 4 3 0 3 6 4 2 3 5 3 3 5 5 6 5 5 5 5 5 5 4 4 4 4 4 5 6 6 6 7 7 8 7 7 6 6 7 7 8 10 11 12 14 16 18 21 23 25 26 27 27 27 27 27 26 26 26 27 27 28 28 28 28 29 31 31 32 33 34 34 31 28 28 28 30 32 34 36 36 37 40 41 41 40 40
6 4 6 5 4 4 4 4 3 2 4 5 4 3 1 3 5 3 4 6 5 4 3 4 5 6 6 5 5 5 5 5 5 4 5 6 6 7 8 8 8 8 8 8 8 8 7 7 6 6 7 8 9 10 12 14 16 18 21 22 24 24 25 26 27 28 28 28 28 27 27 27 27 27 27 28 29 29 31 32 33 34 34 33 31 30 30 29 31 34 35 36 38 40 41 40 40
5 5 6 5 2 2 2 3 1 2 5 3 2 2 2 5 7 7 8 9 7 7 7 6 6 7 7 7 7 7 5 5 4 3 3 4 4 6 8 9 9 9 8 8 8 8 8 7 6 5 5 5 6 8 10 11 14 16 18 20 21 22 24 26 27 28 28 28 28 27 27 27 27 27 27 27 27 27 28 30 31 32 33 33 33 33 32 30 29 30 32 35 37 39 40 40 40
4 6 6 5 3 3 2 3 2 3 3 2 3 2 2 4 6 9 12 10 6 6 7 7 6 7 7 7 8 8 7 5 4 3 2 2 2 4 5 6 7 8 8 9 9 8 8 7 5 4 3 3 4 6 8 10 12 13 15 17 19 21 23 25 26 27 27 27 27 27 27 27 27 27 27 26 25 25 26 27 28 29 30 30 31 32 33 32 30 30 31 33 36 38 39 39 41
2 3 5 6 5 4 4 4 3 3 2 3 3 2 3 2 2 6 9 8 5 5 6 5 6 7 6 7 7 7 7 5 4 3 2 1 2 3 3 4 6 7 9 9 9 8 7 6 5 4 2 2 3 5 7 9 10 12 14 16 18 20 22 23 24 25 25 26 26 26 27 26 26 26 25 24 24 24 24 25 25 26 27 28 29 30 32 32 31 31 31 32 34 36 37 39 41
1 1 5 3 4 5 4 3 5 3 0 2 2 3 4 3 6 7 5 5 6 5 5 5 6 5 3 5 6 5 5 5 4 3 3 3 3 4 4 6 7 8 9 9 8 8 7 6 5 3 2 0 2 4 6 8 9 11 13 15 17 19 20 22 23 23 24 24 25 25 26 25 25 24 23 23 23 23 23 22 23 23 24 25 26 27 29 31 31 31 31 31 33 34 36 39 41
2 2 3 4 3 8 6 2 1 3 1 3 1 3 5 4 7 8 4 5 7 4 5 5 6 4 3 4 5 4 5 5 5 4 4 4 4 6 6 8 9 9 9 9 9 8 6 5 4 3 2 1 2 3 5 7 9 11 13 14 16 18 20 21 21 21 21 22 23 24 24 24 24 23 22 22 21 21 21 21 21 22 22 23 24 25 26 28 29 31 31 31 32 32 34 37 39
5 3 5 4 3 5 5 2 3 4 1 4 1 4 5 2 3 7 6 5 8 5 5 5 5 3 1 4 5 4 5 5 4 4 3 3 5 8 8 9 10 11 11 10 9 8 6 5 4 3 2 1 1 2 4 6 8 9 11 13 15 17 19 20 20 20 20 21 22 23 23 23 23 22 22 21 20 20 20 21 21 22 22 22 23 24 25 26 27 29 30 31 31 30 32 35 37
4 4 4 4 3 2 2 3 2 1 2 4 3 3 4 3 5 5 2 6 8 8 6 4 4 3 3 5 5 5 4 4 3 3 3 4 7 9 9 11 11 12 12 11 10 9 8 7 7 6 6 5 5 5 5 6 7 8 9 11 13 16 18 19 19 19 20 21 22 22 22 23 22 22 22 21 20 20 20 21 21 22 22 23 24 24 25 26 26 28 29 30 31 30 32 35 36
4 2 2 2 3 4 2 3 4 3 3 3 4 3 3 6 6 5 7 8 7 6 4 4 6 6 4 4 4 3 2 2 3 4 4 5 7 8 10 12 12 13 13 12 11 11 10 10 10 10 10 11 11 10 10 10 10 10 11 11 12 14 16 18 18 19 20 22 22 22 22 21 21 22 22 21 21 20 20 21 22 22 23 23 24 25 26 26 26 28 28 29 29 30 32 34 35
3 3 3 2 2 2 2 1 2 3 4 3 2 3 5 6 5 7 10 7 4 4 3 4 6 6 4 4 4 3 2 1 2 3 4 5 7 8 11 12 13 13 12 11 11 9 9 9 9 9 10 11 11 11 12 12 13 13 13 13 13 14 15 17 18 19 20 21 22 23 21 20 21 22 22 22 22 21 21 21 21 23 24 24 25 25 25 26 27 28 28 28 28 28 31 34 34
5 5 6 6 4 4 3 2 1 2 3 4 3 3 7 6 4 6 7 5 4 4 4 4 5 5 4 4 4 4 3 2 1 3 4 5 8 9 11 13 13 12 10 9 8 7 7 6 6 7 8 8 9 10 11 12 12 12 13 13 13 13 14 16 18 19 20 20 22 23 22 21 21 22 22 23 23 22 22 22 22 23 24 24 25 26 26 26 29 29 29 29 29 29 31 34 34
Wind_Direction
15 127 168 172 197 185 29 52 93 325 73 88 287 179 224 214 148 165 172 177 156 209 203 132 134 138 123 150 185 165 125 163 174 134 164 174 148 157 159 157 157 152 146 140 139 139 141 145 144 135 127 121 115 109 105 98 95 96 98 99 99 99 99 99 95 96 102 104 102 98 90 88 93 96 95 94 92 91 91 89 88 88 89 86 84 81 83 85 82 81 82 84 84 84 84 84 85
75 127 156 141 46 110 230 51 104 338 53 110 252 179 254 330 155 189 181 185 197 219 141 118 114 107 85 88 131 130 92 116 197 175 80 131 145 155 154 157 159 153 148 143 144 146 147 148 145 138 130 128 120 116 110 103 100 98 100 103 105 102 100 99 97 101 100 100 102 101 95 89 93 98 96 96 96 93 91 91 91 89 88 88 88 86 86 85 83 82 83 86 87 86 86 87 87
94 153 155 134 37 55 88 40 90 67 79 165 254 231 241 152 201 208 194 210 208 160 99 101 105 83 69 68 57 127 110 111 200 199 113 141 149 157 156 159 161 155 153 147 148 150 150 149 146 143 137 134 126 123 114 107 103 100 103 104 106 104 102 99 100 103 96 95 99 101 99 93 96 100 100 100 97 94 93 93 93 90 89 88 87 86 84 85 84 84 84 88 90 89 89 90 90
114 151 198 172 54 41 59 42 111 123 134 191 254 241 208 183 200 217 222 223 173 111 79 113 111 51 50 174 144 100 178 127 186 175 133 154 159 156 156 160 161 158 156 153 152 151 151 151 149 148 143 137 130 125 116 111 106 102 101 104 109 107 103 99 101 100 92 98 100 101 101 97 99 103 104 102 98 97 96 94 95 94 93 90 87 86 85 85 87 87 87 88 90 92 92 92 92
103 67 69 134 86 52 90 72 100 116 182 180 183 241 226 199 183 186 200 187 185 93 90 126 110 354 47 147 127 125 158 112 178 183 140 157 162 153 155 160 161 159 158 157 155 152 152 153 153 153 148 141 137 129 120 115 111 106 101 106 110 108 106 102 104 106 102 105 102 101 98 94 100 106 108 105 103 101 98 96 97 97 96 94 89 87 85 85 89 91 90 89 89 93 96 95 95
117 75 67 81 85 131 120 97 134 174 216 166 157 238 216 198 176 151 126 169 226 107 139 156 145 136 90 301 246 177 166 125 169 179 151 157 161 153 155 161 162 160 158 159 158 155 155 157 158 157 153 146 139 130 124 121 116 109 103 107 109 108 107 103 104 106 107 105 99 98 96 92 102 111 111 109 106 103 101 99 99 96 94 94 91 89 86 86 91 93 92 93 93 96 99 99 99
158 90 52 73 67 36 104 143 192 212 215 164 184 227 197 189 170 138 138 172 233 4 145 226 152 116 137 303 206 198 190 152 149 168 162 157 158 155 157 160 161 161 160 162 162 160 158 160 161 161 157 147 140 132 127 124 119 111 106 107 111 111 108 106 107 106 102 100 98 99 100 97 105 116 115 112 109 105 103 101 101 99 96 94 92 91 90 91 94 94 95 97 99 100 100 101 102
102 133 12 85 51 21 91 128 202 203 132 237 237 237 212 178 157 142 157 179 174 210 31 218 171 111 186 29 139 233 202 168 151 159 163 156 157 157 160 162 162 162 164 166 165 165 163 162 164 165 162 151 143 135 130 129 123 116 110 109 113 114 115 115 112 111 104 100 104 106 109 106 109 117 118 115 112 108 106 104 104 103 101 97 94 95 94 95 95 95 97 98 101 101 101 101 101
55 53 42 86 83 38 49 56 211 234 274 270 245 250 243 169 142 139 161 199 230 176 206 204 174 104 208 63 129 282 205 180 162 156 162 161 161 160 163 167 168 165 166 169 169 169 169 166 165 167 166 159 153 143 137 135 128 123 117 114 118 119 124 123 116 116 115 112 114 112 115 114 113 117 119 119 116 112 108 107 106 105 104 100 98 98 97 97 97 96 97 99 102 102 103 104 105
39 27 117 82 89 59 4 274 234 261 257 262 256 244 205 167 126 120 150 172 188 140 209 219 116 81 136 115 239 295 164 176 161 157 164 167 165 164 166 169 173 170 168 170 172 172 172 171 168 168 169 168 163 152 148 144 135 130 124 121 122 125 131 129 123 123 121 120 120 116 118 118 118 119 122 122 120 114 110 110 109 108 105 102 102 101 100 99 99 98 99 102 105 104 104 107 111
41 359 95 82 77 107 197 217 267 275 275 293 279 250 197 164 118 99 102 122 145 111 172 195 130 133 95 339 233 229 173 169 165 161 163 170 169 168 167 168 174 174 171 171 174 175 175 175 173 171 173 174 171 163 159 154 145 138 133 128 125 129 136 134 131 131 127 125 125 120 121 123 122 122 125 126 123 118 116 116 111 109 107 106 108 104 104 102 101 102 102 104 105 106 107 109 113
81 343 62 86 128 178 200 175 267 286 306 319 164 248 187 141 124 145 149 143 152 124 211 202 165 136 93 312 229 237 190 171 171 164 163 171 171 169 169 170 173 176 176 174 175 178 179 179 178 176 177 178 178 174 169 164 156 148 142 137 130 131 137 140 137 138 134 131 130 125 128 131 127 126 129 130 128 124 121 119 113 111 110 112 113 107 106 105 105 105 104 105 105 109 112 114 116
114 147 88 97 155 154 151 144 275 314 324 251 174 222 156 138 168 181 151 126 134 146 239 212 159 101 126 255 254 276 193 174 172 167 166 171 171 170 171 172 173 176 178 177 177 179 182 183 183 182 181 181 184 182 178 174 166 158 152 148 141 136 138 145 144 142 140 137 137 137 139 138 134 132 133 134 132 129 128 124 118 116 116 117 114 108 109 108 107 107 106 107 109 112 116 119 121
132 150 108 114 90 126 148 132 288 168 244 253 187 174 166 156 188 173 137 136 194 180 252 196 149 118 166 224 275 276 185 175 172 169 168 170 173 172 174 176 176 177 179 180 180 181 184 185 185 186 187 186 187 188 185 181 176 168 162 159 153 146 142 147 150 147 145 142 143 149 151 146 143 137 137 139 137 138 141 133 121 119 121 120 116 114 114 112 111 111 110 112 114 117 120 121 122
131 127 89 105 51 61 158 123 155 151 213 220 145 164 165 174 135 145 158 160 219 218 85 148 159 169 187 161 223 238 175 173 171 168 166 168 174 173 178 181 180 181 182 183 182 184 186 187 187 189 192 190 191 194 190 186 184 178 171 168 163 158 151 149 155 153 150 147 147 155 158 156 151 141 143 146 145 148 150 139 125 123 123 123 125 124 120 118 117 114 115 118 122 124 123 123 124
120 114 72 90 105 168 172 158 125 134 239 209 153 169 144 246 131 149 220 155 166 292 62 196 174 140 163 147 248 192 163 169 169 167 165 168 174 174 180 185 185 186 186 188 186 186 187 189 190 191 194 193 195 198 195 191 188 186 180 176 173 167 162 157 158 159 159 157 155 160 165 167 159 146 148 152 153 153 152 144 134 133 130 130 131 128 124 121 119 118 122 128 131 132 130 129 130
76 83 70 82 147 195 185 176 176 163 237 230 248 193 147 207 283 186 278 85 117 174 327 243 187 171 178 165 309 149 157 165 167 167 166 170 175 175 180 185 187 189 190 192 191 189 190 193 194 194 196 196 198 200 199 196 192 193 188 183 181 176 174 168 164 165 166 166 165 167 170 173 168 155 150 155 160 158 154 151 143 140 141 140 136 131 128 125 124 127 134 137 137 138 138 138 138
59 78 97 136 169 203 186 179 196 169 180 194 204 196 158 175 219 165 99 45 43 108 297 300 309 258 229 266 278 158 158 163 167 168 167 171 176 177 182 186 188 192 193 194 195 194 193 197 199 198 198 199 201 202 202 200 196 197 196 191 187 185 182 178 174 171 172 172 171 173 173 174 173 167 158 157 164 164 159 159 152 145 148 147 139 135 134 132 133 138 142 143 142 144 145 145 146
86 110 112 203 197 204 195 174 186 172 130 155 168 195 170 180 167 139 180 311 22 148 271 337 339 277 243 289 202 163 161 163 169 171 171 175 178 180 184 188 191 195 196 196 198 199 199 200 202 202 202 202 203 204 204 203 201 201 202 200 194 192 192 188 185 182 181 179 177 177 177 177 177 174 167 161 165 167 166 169 165 155 154 150 147 150 149 140 140 145 148 146 145 146 149 151 154
138 117 110 234 212 207 213 180 192 218 149 138 150 165 168 202 160 145 183 178 83 191 226 200 258 251 223 260 166 165 165 166 172 174 176 181 184 187 188 190 195 199 200 200 202 205 206 205 204 205 206 206 205 207 208 205 205 206 205 207 204 199 198 197 193 193 193 189 186 184 183 183 182 180 173 165 168 172 174 177 176 169 164 161 164 168 161 148 145 151 153 149 145 147 155 155 157
135 116 159 213 185 129 202 199 214 224 143 139 138 130 170 225 163 153 157 141 268 241 225 201 212 218 192 177 172 169 168 171 177 180 181 185 190 194 196 197 200 202 204 206 208 211 211 211 210 208 210 211 208 209 211 208 206 209 210 211 211 208 205 203 201 200 201 199 195 193 191 190 187 186 181 173 173 178 182 184 185 181 176 176 180 178 162 149 152 157 158 155 150 152 159 160 161
95 84 162 171 146 115 196 232 217 169 100 117 129 146 179 162 134 158 161 173 235 241 227 211 213 195 171 170 173 171 173 177 182 186 188 190 194 199 201 203 204 206 209 209 212 215 216 217 217 214 213 214 213 212 213 213 211 211 214 216 214 212 211 208 207 206 206 206 204 202 199 197 195 192 189 185 182 186 190 193 194 192 190 190 191 182 161 155 163 168 166 162 159 160 163 166 167
114 251 123 162 165 111 133 292 212 142 114 137 156 173 142 122 194 178 180 212 216 221 241 230 225 179 158 159 167 171 179 185 190 193 192 193 197 201 202 203 204 207 210 212 215 217 219 219 221 222 218 214 215 217 214 215 218 215 214 220 221 215 214 213 212 211 210 211 210 210 208 205 201 197 196 194 193 195 197 201 203 203 202 200 195 185 172 169 174 178 175 173 170 167 169 171 172
100 151 159 170 159 89 348 247 146 136 139 178 181 131 122 157 195 86 223 236 216 249 287 255 180 153 151 157 172 181 185 190 196 199 198 198 201 202 203 204 207 208 211 214 216 217 220 221 222 226 225 218 215 216 216 214 218 221 216 220 228 225 219 216 215 215 214 215 215 215 216 214 210 205 203 202 203 203 205 208 210 210 209 207 198 190 187 184 184 187 185 184 181 177 177 177 178
84 146 171 149 125 42 31 99 97 110 134 167 116 118 229 203 173 124 245 251 263 285 328 93 117 137 160 167 180 188 190 196 201 204 204 205 204 205 207 209 210 212 215 216 217 218 220 222 224 226 229 227 219 214 217 217 215 220 220 218 225 231 229 221 218 219 219 218 218 220 219 219 218 214 210 209 210 209 209 212 215 217 215 211 203 197 200 200 195 195 194 194 192 187 185 183 184
153 135 142 122 77 347 66 90 58 68 80 58 118 95 322 248 187 273 254 267 296 300 74 108 124 147 184 180 186 191 194 200 202 204 208 209 207 208 211 211 212 215 218 219 219 220 221 222 224 227 229 230 228 217 216 220 218 218 221 221 221 227 233 231 224 220 222 223 221 222 224 224 223 222 218 215 215 215 215 216 218 221 220 216 210 206 207 210 208 204 202 203 200 196 193 190 189
129 117 106 89 84 355 73 96 33 22 66 40 144 152 318 311 333 267 262 312 312 95 89 120 152 175 197 192 198 198 201 204 200 202 206 209 210 212 213 212 215 217 218 220 220 221 222 223 225 227 230 230 232 228 220 220 220 220 222 223 223 225 228 234 234 226 223 226 227 225 225 227 226 226 224 222 221 221 221 221 222 223 224 221 215 213 211 212 214 213 211 210 208 204 199 196 194
116 130 97 33 39 54 48 83 32 0 82 38 127 142 321 3 298 234 258 324 334 129 129 254 189 209 211 203 211 209 217 213 203 203 203 207 210 211 212 213 215 216 218 220 220 220 223 226 226 228 230 230 231 233 231 226 224 225 223 222 225 228 227 230 235 235 229 227 229 230 229 229 228 228 228 227 226 227 227 227 228 228 228 226 220 217 216 216 216 216 215 213 213 210 205 202 198
126 129 101 359 13 46 19 48 360 357 106 10 107 96 302 235 232 246 277 324 13 116 181 255 226 247 250 232 234 222 228 219 209 213 213 213 213 212 215 217 216 216 219 220 220 221 222 224 227 228 229 231 232 231 234 235 231 228 228 226 224 229 232 232 234 238 238 234 231 231 232 233 231 231 230 230 230 229 231 231 232 232 231 231 227 222 219 219 219 217 216 214 214 213 210 206 201
126 66 92 59 25 23 351 358 331 85 96 330 111 221 280 252 256 268 305 327 16 112 230 252 251 260 268 254 251 239 233 220 218 221 221 221 220 219 221 222 220 219 222 220 220 222 221 223 225 228 229 230 232 230 232 235 235 235 236 235 231 231 233 235 238 239 242 242 239 236 235 236 235 235 235 233 233 231 231 232 233 234 231 229 229 229 228 226 224 221 219 215 214 214 213 210 206
91 66 53 76 128 248 315 339 356 124 97 5 100 182 273 266 270 279 316 326 205 258 262 263 266 263 261 255 250 250 239 228 229 230 229 229 227 226 226 227 225 223 224 223 223 222 221 223 223 226 229 230 232 232 232 231 233 235 237 238 236 234 233 235 238 238 240 243 243 243 243 241 237 236 238 237 237 234 233 233 233 234 232 228 226 228 232 232 228 225 223 220 216 214 215 214 210
46 110 324 5 159 243 316 347 52 124 91 34 97 197 275 267 267 275 322 22 157 243 276 285 275 262 255 250 244 246 250 243 242 241 237 234 232 230 230 230 229 227 226 227 226 224 223 224 223 225 227 229 231 233 234 231 231 233 235 237 236 236 237 236 236 237 239 241 243 244 245 247 244 239 238 238 239 237 235 235 235 236 234 230 228 225 224 226 225 223 224 224 220 215 213 212 210
354 99 167 235 160 238 316 355 358 74 116 25 87 201 269 277 272 280 320 55 99 265 281 286 275 265 254 243 243 243 254 253 248 245 241 238 235 234 233 232 232 231 230 230 229 227 227 225 224 225 226 227 229 231 232 230 229 230 231 236 236 236 237 238 238 238 238 238 238 237 235 240 246 244 240 237 238 239 238 237 235 235 235 231 231 230 226 224 224 222 220 220 220 219 215 210 208
283 48 120 195 168 181 278 266 319 39 115 156 52 219 246 265 281 285 291 352 66 278 272 277 273 268 257 245 249 244 247 253 247 242 240 239 238 237 237 236 235 234 233 233 232 231 232 229 226 227 228 226 226 229 230 227 224 224 226 231 233 232 232 233 235 234 236 234 232 235 235 236 239 237 234 233 236 240 239 237 235 234 234 232 232 232 228 225 224 222 219 217 217 219 216 211 209
174 158 132 162 190 193 245 234 264 31 96 175 73 259 259 274 283 283 280 218 225 258 258 268 271 265 261 253 248 245 245 248 246 244 243 243 242 241 240 239 238 237 236 235 234 234 234 233 231 230 229 228 226 226 227 228 228 227 229 231 231 229 227 230 234 232 230 229 234 245 245 242 240 237 233 231 237 240 236 234 233 231 231 230 230 228 225 223 223 221 220 217 214 215 216 213 211
156 166 140 148 173 220 245 250 273 4 110 201 222 236 267 280 284 284 283 209 224 267 274 270 267 262 260 251 244 245 244 248 253 254 253 250 247 246 245 243 241 240 239 237 236 235 234 234 233 232 231 229 227 225 224 224 226 229 231 232 234 234 235 239 242 238 232 233 242 249 246 242 242 240 237 237 239 237 232 231 232 232 231 229 228 227 226 226 224 221 219 216 213 210 211 213 211
131 127 107 139 155 193 244 264 305 318 136 236 232 248 274 272 273 276 281 305 265 269 271 267 265 260 254 247 248 244 240 249 260 262 258 252 251 249 246 244 241 240 239 237 236 236 236 235 233 233 233 229 225 224 223 221 220 220 222 226 230 233 236 239 238 237 238 240 242 241 238 238 238 237 236 238 240 236 233 232 231 230 230 230 233 232 229 226 223 221 218 216 215 212 210 211 209
99 128 129 134 164 181 239 233 317 340 174 257 12 316 273 263 266 269 273 283 257 247 246 254 257 256 253 246 250 250 253 266 266 262 262 255 251 247 244 241 236 236 236 235 235 237 236 234 233 235 234 229 226 224 221 222 222 219 219 222 225 227 230 231 229 229 231 234 236 234 234 237 240 241 239 237 240 239 234 231 228 227 229 233 236 233 228 225 223 222 220 216 214 215 215 213 206
86 111 132 146 205 204 288 298 335 6 131 267 354 324 274 263 262 263 258 247 248 244 236 244 252 258 260 247 247 261 275 282 272 265 265 257 252 247 243 239 235 236 238 237 237 237 235 233 234 235 233 230 230 226 222 223 224 224 223 224 226 229 232 231 230 230 232 236 241 242 242 242 243 243 239 233 235 239 234 230 230 230 233 236 235 231 227 226 223 222 221 218 213 211 214 215 209
92 111 133 166 220 162 186 247 324 17 58 289 263 279 282 282 284 275 265 254 265 274 261 255 249 252 261 264 265 269 270 274 277 273 264 260 258 250 245 243 240 238 237 238 237 236 234 234 235 234 232 231 230 227 224 224 225 227 228 230 231 233 236 237 236 238 241 245 246 246 248 247 244 240 236 234 239 242 238 236 235 232 235 240 238 232 227 224 225 225 223 220 214 208 209 214 213
57 148 143 162 186 172 185 183 90 14 22 33 36 310 294 311 321 286 296 331 294 302 307 279 260 253 265 278 276 260 256 263 270 271 266 263 262 258 254 250 246 241 238 239 238 237 237 237 237 234 232 231 230 229 226 223 223 224 225 227 229 231 234 235 235 236 238 241 243 245 247 246 242 240 243 248 250 248 244 241 236 233 240 246 241 237 233 231 231 230 226 222 219 216 215 216 215
247 211 175 170 166 154 138 114 87 48 6 4 26 341 288 316 311 268 306 344 306 311 317 288 287 289 274 274 276 269 266 262 257 266 272 272 269 266 262 254 248 247 245 245 243 242 242 241 239 236 234 232 231 230 228 223 220 220 219 218 219 222 225 227 229 232 233 235 238 241 245 246 242 241 245 248 246 244 247 246 237 237 243 242 237 234 231 229 228 228 228 225 222 222 220 217 215
169 225 162 142 131 127 135 130 100 105 203 339 44 147 258 314 304 271 316 330 301 303 299 288 297 301 288 274 279 283 282 278 268 272 276 275 274 271 270 265 256 253 251 247 244 241 239 239 238 236 234 233 231 230 228 224 220 219 219 220 220 221 223 227 231 234 236 238 239 240 242 243 241 240 241 241 239 239 243 242 237 240 244 241 238 234 230 229 229 229 230 227 225 225 221 217 219
183 243 120 123 121 129 141 118 98 172 209 334 17 102 218 298 276 274 329 328 302 305 306 306 308 301 303 292 281 278 274 278 280 282 283 277 281 286 288 290 268 251 244 235 231 230 230 230 231 231 230 230 229 228 227 224 221 220 221 223 225 226 228 233 236 239 241 241 243 243 243 243 242 241 242 241 241 243 244 241 239 241 242 243 244 239 234 233 232 231 231 230 228 227 224 222 223
232 214 117 118 117 120 116 94 89 24 27 298 328 38 159 266 275 301 354 331 290 295 298 301 304 304 311 307 301 296 282 276 267 267 279 292 306 315 307 317 349 194 200 203 200 201 208 212 216 219 221 223 223 224 224 225 224 224 224 224 226 230 234 238 240 242 244 243 244 245 246 246 245 244 244 244 244 246 247 247 249 249 249 251 250 245 240 237 236 234 233 232 229 227 226 225 224
183 147 101 82 77 79 75 84 95 47 38 236 279 5 200 265 285 307 12 303 263 274 282 276 280 287 291 296 305 314 317 318 303 271 280 305 337 5 20 51 74 92 108 127 141 153 169 182 196 205 211 215 217 219 220 223 225 226 226 227 229 232 236 238 240 242 243 243 244 245 245 246 246 246 245 245 244 244 245 246 248 249 249 250 249 247 242 238 236 235 235 233 230 227 226 226 226
139 119 82 68 45 40 51 55 77 68 313 252 262 316 320 271 280 258 205 219 218 228 283 287 291 298 294 292 302 320 333 335 332 323 327 358 39 60 69 76 77 85 97 106 116 126 137 154 172 186 199 206 212 217 219 222 224 226 229 231 233 235 237 238 238 238 240 241 242 243 246 246 246 246 245 245 243 242 242 242 244 245 246 249 250 249 245 241 242 242 240 239 237 232 230 230 231
107 96 96 88 19 14 28 3 40 106 252 261 277 305 173 219 262 252 240 253 227 201 238 272 285 301 306 308 318 328 333 330 333 338 351 19 47 63 69 74 75 79 87 95 105 114 122 135 150 168 185 196 206 214 219 223 225 228 231 234 237 239 241 240 239 240 240 241 242 244 245 246 246 246 245 245 244 243 243 243 244 245 247 251 254 255 254 252 250 246 242 243 242 236 232 232 232
80 108 112 101 24 17 4 319 342 206 242 267 291 289 212 232 252 258 262 263 239 218 225 237 256 279 293 313 328 327 325 323 324 329 336 357 23 45 61 69 76 86 93 98 104 107 112 121 130 148 170 188 206 216 221 226 229 233 235 237 241 243 243 244 244 244 245 245 246 247 246 247 247 247 247 247 249 250 249 249 249 249 250 251 252 254 256 256 253 247 244 245 242 237 233 231 232
130 140 132 133 120 97 234 264 289 255 257 288 287 268 259 269 265 250 249 250 232 220 230 233 246 263 280 306 316 308 310 311 301 308 316 317 358 30 59 74 85 97 102 104 104 103 104 108 114 128 152 185 212 227 232 236 238 241 243 243 245 245 245 247 247 248 250 250 250 250 250 251 251 252 253 255 257 257 256 255 255 255 255 254 251 250 252 255 256 255 253 250 246 242 239 236 235
164 162 126 146 155 146 195 209 197 229 268 303 293 268 201 210 275 241 236 257 271 252 256 264 260 261 277 299 301 299 305 306 296 308 331 327 352 18 55 85 97 102 101 99 98 95 94 94 97 108 130 188 226 242 244 249 252 251 251 250 250 249 249 250 251 253 253 254 255 254 255 255 255 257 259 261 262 260 259 259 257 257 257 256 253 251 251 252 253 255 255 254 252 248 242 239 239
239 123 101 152 182 135 135 171 169 164 2 304 266 245 215 210 286 277 254 285 291 275 290 301 276 279 326 309 295 300 302 308 324 343 351 355 23 48 66 86 97 99 96 94 90 85 83 79 76 76 70 316 273 268 264 265 264 260 259 257 256 255 254 254 254 255 256 256 258 258 258 259 260 262 262 262 262 260 259 259 258 257 256 256 255 253 252 251 252 253 253 253 252 249 243 241 241
151 124 162 208 167 112 114 164 78 81 144 267 226 253 287 324 295 295 324 301 290 295 297 283 274 301 354 308 285 296 303 314 329 327 318 335 35 62 78 92 96 97 95 91 88 85 83 79 74 71 62 9 320 294 283 278 272 269 267 265 263 260 259 259 259 259 260 260 261 260 261 262 262 262 262 261 261 261 260 260 259 258 257 255 254 253 252 252 252 252 252 252 252 250 247 244 242
121 172 200 183 117 95 109 132 22 46 222 276 288 238 285 342 277 316 348 281 268 271 265 274 290 308 316 284 280 288 300 311 316 317 318 348 51 68 84 95 94 93 92 87 85 83 80 75 68 63 59 28 337 299 283 278 276 274 273 271 270 268 266 266 266 266 265 263 263 262 263 264 263 263 262 261 261 261 262 262 261 261 259 256 254 252 251 251 251 253 254 254 253 252 251 250 247
113 176 167 116 131 153 94 129 146 113 218 278 303 274 265 201 224 298 303 230 248 256 252 266 268 230 216 265 287 304 321 340 349 4 23 45 64 71 80 88 87 84 80 74 70 63 54 45 34 24 15 7 358 339 321 306 295 289 284 278 273 270 270 270 270 270 268 265 264 264 264 264 265 265 263 262 263 263 264 265 264 263 261 258 256 253 251 250 250 252 255 257 255 251 250 250 249
39 98 105 73 127 159 157 146 160 170 184 248 309 323 266 222 216 226 222 223 231 231 231 238 236 223 218 247 273 300 338 17 43 53 47 51 64 70 74 78 77 75 68 60 53 44 35 26 17 8 359 356 354 346 337 329 321 312 304 296 288 281 276 274 273 271 269 267 266 265 264 265 266 266 264 264 264 265 266 266 266 265 262 258 256 254 251 249 249 252 255 259 257 249 246 248 247
101 117 153 163 69 115 156 95 110 137 157 181 263 300 269 247 211 201 218 234 229 210 223 249 247 241 235 236 231 211 141 100 64 47 21 22 45 61 72 77 76 74 66 56 48 39 31 20 6 357 350 347 343 337 332 326 321 317 312 310 305 298 290 283 279 274 273 272 270 269 268 268 268 267 266 265 265 266 267 267 267 265 263 261 257 255 252 248 247 251 253 257 257 250 245 246 248
158 169 182 174 143 124 150 243 270 106 133 165 169 259 269 255 210 205 220 242 267 262 249 260 269 260 247 236 221 198 144 131 1 347 337 3 28 48 70 79 77 73 63 52 44 34 24 12 355 346 341 335 327 322 320 316 314 312 312 312 306 299 294 288 284 280 278 278 276 274 273 272 271 271 270 268 268 267 267 266 265 265 264 263 260 258 256 251 248 250 253 255 254 251 247 245 247